Погода в Кузьмовке

Погода в Кузьмовке : погода сейчас, прогноз погоды и архив. Всё, что Вы хотите узнать о погоде в Кузьмовке!

Поиск расширенной информации на нашем сайте:

Другие новости

Новости СМИ2

Главная страница сайта

Новости сайта

02.10.2013

Напоминаем, что на нашем новом сайте вы можете получить высокодетализированные прогнозы погоды по пунктам России, СНГ и мира (включающие важные для авиации метеовеличины, такие как направление и скорость ветра, видимость, явления погоды, количество и форма облачности, нижняя и верхняя граница облачности), а также ознакомиться с разнообразными материалами по авиационной метеорологии и подборкой полезных ссылок на эту тему.

Сайт Метеоцентр.Азия посвящён разработке технологий оптимизации авиаметеорологического обслуживания, включая проектирование и перспективное создание нескольких автоматизированных авиаметеорологических систем:
- система выпуска высокодетальных прогностических карт явлений погоды для нижнего воздушного пространства по России и ближнему зарубежью;
- система верификации прогнозов TAF (выпускаемых синоптиками официальных АМСГ РФ и ближнего зарубежья) и AUTOTAF (выпускаемых сайтом Метеоцентр.Азия) - выявление ошибок, онлайн-сопоставление с фактической погодой METAR, автоматическое внесение коррективов в прогнозы при резком отклонении фактической погоды от прогноза, подсчёт оправдываемости прогнозов по элементам и в целом;
- система обработки, анализа и отображения авиаметеорологической информации для применения провайдерами метеорологической информации.


Погода в Кузьмовке - сегодня

Время (UTC), дата Ветер
(°,м/с) 
Видим.   Явления Облачность Т
(°С)
Тd
(°С)
f(%) Тe
(°С)
Pmin
(гПа)
dP
(гПа)
Po
(мм)
O2
(г/м3)
Тmin Tmax R s Состояние
почвы
21 16.02.17 тихо ()   4000 м  слаб. снег  10/10 2000 м 
[As trans]
-17.6 -18.8 90 -18  1019.8  -1.2  759  328           
03 17.02.17 160 (Ю) 10 км  слаб. снег  10/10 2000 м 
[As trans]
-19.8 -21 90 -20  1017.7  -1.3  757  330  -30         
06 17.02.17 180 (Ю) 10 км  слаб. снег  10/10 2000 м 
[As trans]
-14.2 -16.2 85 -14  1015.6  -1.9  755  322           
09 17.02.17 180 (Ю) 4000 м  слаб. снег  10/4 600 м средняя 
[Sc|As trans]
-12.8 -14.8 85 -13  1013.4  -2.2  754  320           
12 17.02.17 180 (Ю) 4000 м  слаб. снег  10/10 2000 м 
[Ac As]
-14.1 -16.1 85 -14  1012.1  -1.2  753  321    -12.6     
03 18.02.17 160 (Ю) 10 км  слаб. снег  10/10 2000 м 
[Ns]
-15.8 -17.1 90 -16  1009.6  -0.8  751  323           
06 18.02.17 180 (Ю) 4000 м  слаб. снег  10/10 2000 м 
[Ns]
-11.2 -13.2 85 -14  1007.4  -2.1  749  316           
09 18.02.17 210 (ЮЗ) 20000 м  слаб. снег  10/10 2000 м 
[Ns]
-10.6 -14.2 75 -15  1007.3  -0.1  749  315           
12 18.02.17 180 (Ю) 4000 м  слаб. снег  10/6 600 м средняя 
[Sc|As op]
-11.8 -14.6 80 -15  1008.8  1.5  751  317    -10.4  0.7     
03 19.02.17 180 (Ю) 10 км  слаб. снег  10/10 2000 м 
[Ns]
-11.6 -12.9 90 -11  1011.5  753  318           
06 19.02.17 180 (Ю) 10 км  слаб. снег  10/6 600 м средняя 
[Sc|As trans]
-9.2 -12.2 79 -11  1011.6  0.1  753  315           
09 19.02.17 180 (Ю) 10 км  слаб. снег  10/8 600 м средняя 
[Sc|As trans]
-9 -12.9 73 -12  1011.1  -0.5  752  315           
12 19.02.17 180 (Ю) 10 км  слаб. снег  10/8 600 м средняя 
[Sc|As op]
-9.6 -12.3 81 -11  1011.9  0.8  753  316    -8.8  0.7     
15 19.02.17 180 (Ю) 10 км  слаб. снег  10/6 600 м средняя 
[Sc|As op]
-10.5 -12.5 85 -10  1012.4  0.5  753  317           
18 19.02.17 180 (Ю) 20000 м  {снег}  4/0 верхняя 
[Ci fib]
-14.9 -16.9 85 -15  1013.5  0.9  754  323           
21 19.02.17 тихо ()   20000 м    ясно 
-19 -20.9 85 -19  1014.6  0.9  755  328           
03 20.02.17 тихо ()   20000 м    9/0 верхняя 
[Ci sp]
-24.7 -26.5 85 -25  1016.7  1.1  756  337  -25.5         
06 20.02.17 тихо ()   20000 м    10/0 верхняя 
[Cs]
-15.7 -17.6 85 -16  1015.9  -0.4  756  325           
09 20.02.17 170 (Ю) 20000 м    8/3 2000 м средняя, верхняя 
[Ac lent|Ci fib]
-11.4 -14.9 75 -11  1014.7  -1.1  755  319           
12 20.02.17 140 (ЮВ) 20000 м    3/3 2000 м средняя 
[Ac und]
-15.5 -17.4 85 -16  1014.5  -0.3  755  324    -10.8       
21 20.02.17 180 (Ю) 10 км  слаб. снег  10/10 2000 м 
[As trans]
-13.4 -14.7 90 -13  1012.1  -1.1  753  320           
03 21.02.17 180 (Ю) 10 км  слаб. снег  10/10 2000 м 
[Ac As]
-11.6 -13.6 85 -11  1011.4  -0.4  752  318           
06 21.02.17 180 (Ю) 10 км  слаб. снег  10/4 600 м средняя 
[Sc|As trans]
-9.3 -12.3 79 -9  1011.7  0.3  753  315           
09 21.02.17 180 (Ю) 4000 м  слаб. снег  10/5 600 м средняя 
[Sc|As trans]
-8.6 -10.5 86 -10  1010.9  -0.7  752  314           
12 21.02.17 180 (Ю) 20000 м  в посл. час снег  9/9 2000 м средняя 
[Ac und]
-9.7 -12.8 78 -10  1011.2  0.2  752  315    -8.2  0.3     
Время (UTC), дата Ветер
(°,м/с) 
Видим.   Явления Облачность Т
(°С)
Тd
(°С)
f(%) Тe
(°С)
Pmin
(гПа)
dP
(гПа)
Po
(мм)
O2
(г/м3)
Тmin Tmax R s Состояние
почвы

Для получения пояснительной информации подведите курсор к названию столбца.

ПОГОДА в Кузьмовке - архив

Всё, что Вы хотите узнать о погоде в Кузьмовке - удобно и подробно!

Выберите нужную дату (начиная с 1 января 2015* года) и нажмите кнопку "Найти".
Будут отображены архивные сводки погоды по пункту Кузьмовка, начиная с указанной даты.


Отображать данные в формате CSV (для использования в таблицах Excel)


Внимание! Наш архив погоды предназначен исключительно для личного некоммерческого использования в познавательных целях. Если Вам необходимы официальные справки о состоянии погоды (для производственных, юридических, коммерческих и т.п. целей), обращайтесь в органы Росгидромета.

*Примечание: данная дата относится к архиву по метеостанциям СССР (Россия, СНГ, Балтия).
Архив по метеостанциям Зарубежной Европы и Азии (кроме Китая) хранится 10 дней, по другим регионам земного шара (Китай, Африка, Америка, Австралия, Океания) - 1 день.

Кузьмовка - район местоположения метеостанции


Название, широта, долгота, высота метеостанции:
Кузьмовка 62.3°ш. 92.1°д. 60 м над ур. моря [Российская Федерация]

Дополнительная информация

В oтличие oт бoльшинства пoгoдных сайтoв мы публикуем пoдрoбную метеoинфoрмацию в детальнoм прoфессиoнальнoм фoрмате.

Характеристики температуры и влажнoсти вoздуха измеряются на высoте 2 м в тени вдали oт зданий и деревьев.
Скoрoсть ветра измеряется на высoте 10 м (на урoвне рoста челoвека скoрoсть ветра ниже в 1.5-2 раза). Если метеoстанция нахoдится в гoрoде или в лесу, тo скoрoсть ветра занижена на 2-4 м/с пo сравнению с oткрытым местoм. Скoрoсть ветра над акватoриями крупных рек и oзёр, а также на вершинах хoлмoв на 2-5 м/с выше, чем в oбычных услoвиях.
Атмoсфернoе давление в разных тoчках местнoсти мoжет значительнo oтличаться oт давления на метеoстанции, в зависимoсти oт услoвий рельефа (при пoдъёме на 10 м давление пoнижается примернo на 1 мм рт.ст.).